Stations météo

réclame
Mon MeteoGroup
Topcliffe, Grande-Bretagne (3265): Température de l'air & dewpoint: 17.10.2018 23:00:00 - 23.10.2018 23:00:00 (BST)Topcliffe, Grande-Bretagne (3265): Vitesse du vent & gusts: 17.10.2018 23:00:00 - 23.10.2018 23:00:00 (BST)Topcliffe, Grande-Bretagne (3265): Direction du vent: 17.10.2018 23:00:00 - 23.10.2018 23:00:00 (BST)Topcliffe, Grande-Bretagne (3265): reduced air pressure: 17.10.2018 23:00:00 - 23.10.2018 23:00:00 (BST)Topcliffe, Grande-Bretagne (3265): visibility: 17.10.2018 23:00:00 - 23.10.2018 23:00:00 (BST)Topcliffe, Grande-Bretagne (3265): Quantités de précipitations: 17.10.2018 23:00:00 - 23.10.2018 23:00:00 (BST)
Date & Time tt [°C] td [°C] ff [km/h] ff [knt] fx [km/h] fx [knt] dd ppp [hPa] vv [km] rr [mm]
23.10.2018 23:00:00 15,0 11,5 18 10 - - WNW 1025,9 50 0,0
23.10.2018 22:00:00 14,8 11,4 22 12 - - WNW 1025,9 50 0,0
23.10.2018 21:00:00 14,1 10,9 16 9 - - WNW 1026,6 50 0,0
23.10.2018 20:00:00 13,9 10,8 13 7 - - WNW 1026,5 40 0,0
23.10.2018 19:00:00 13,9 10,4 15 8 - - WNW 1026,6 45 0,0
23.10.2018 18:00:00 13,7 10,0 22 12 - - WNW 1026,0 40 0,0
23.10.2018 17:00:00 14,9 10,3 18 10 46 25 WNW 1025,7 45 0,0
23.10.2018 16:00:00 15,1 10,0 29 16 48 26 WNW 1025,8 35 0,0
23.10.2018 15:00:00 15,5 10,0 29 16 52 28 W 1025,7 20 0,0
23.10.2018 14:00:00 15,4 9,6 29 16 52 28 W 1026,0 10 0,0
23.10.2018 13:00:00 14,9 9,2 37 20 67 36 WNW 1025,7 10 0,0
23.10.2018 12:00:00 14,6 8,9 41 22 57 31 WNW 1025,9 20 0,0
23.10.2018 11:00:00 14,4 8,1 29 16 - - WNW 1025,4 21 0,0
23.10.2018 10:00:00 12,8 6,8 16 9 - - W 1026,0 16 0,0
23.10.2018 09:00:00 11,6 6,6 8 4 - - W 1026,3 18 0,0
23.10.2018 08:00:00 11,8 6,6 18 10 - - W 1026,3 19 0,0
23.10.2018 07:00:00 11,9 6,9 24 13 - - W 1027,1 20 0,0
23.10.2018 06:00:00 11,6 7,0 18 10 - - W 1027,2 17 0,0
23.10.2018 05:00:00 11,5 6,6 18 10 - - W 1028,0 20 0,0
23.10.2018 04:00:00 11,3 6,3 21 11 - - W 1028,9 19 0,0
23.10.2018 03:00:00 11,3 6,0 28 15 - - W 1029,4 21 0,0
23.10.2018 02:00:00 11,2 6,0 22 12 - - W 1030,0 20 0,0
23.10.2018 01:00:00 11,3 6,1 18 10 - - W 1031,2 22 0,0
23.10.2018 00:00:00 11,4 6,0 16 9 - - W 1031,6 21 0,0
22.10.2018 23:00:00 11,5 6,0 18 10 - - W 1031,9 35 0,0
22.10.2018 22:00:00 11,1 6,5 16 9 - - WSW 1033,1 35 0,0
22.10.2018 21:00:00 10,6 6,1 29 16 - - WSW 1032,9 40 0,0
22.10.2018 20:00:00 10,3 5,8 18 10 - - W 1033,9 35 0,0
22.10.2018 19:00:00 10,8 5,0 24 13 - - W 1034,4 35 0,0
22.10.2018 18:00:00 10,8 5,1 16 9 - - WSW 1034,2 25 0,0
22.10.2018 17:00:00 12,4 5,8 16 9 - - W 1035,1 35 0,0
22.10.2018 16:00:00 12,8 5,5 21 11 - - W 1035,4 10 0,0
22.10.2018 15:00:00 12,5 4,9 22 12 - - WSW 1036,0 35 0,0
22.10.2018 14:00:00 12,9 4,5 21 11 - - WNW 1036,9 10 0,0
22.10.2018 13:00:00 12,2 4,0 22 12 - - WNW 1037,5 10 0,0
22.10.2018 12:00:00 11,3 4,3 16 9 - - WNW 1037,8 27 0,0
22.10.2018 11:00:00 9,8 4,6 13 7 - - NW 1038,0 19 0,0
22.10.2018 10:00:00 7,6 3,9 9 5 - - NNW 1037,9 10 0,0
22.10.2018 09:00:00 2,6 1,3 4 2 - - SE 1037,4 25 0,0
22.10.2018 08:00:00 4,1 2,7 11 6 - - N 1036,7 30 0,0
22.10.2018 07:00:00 3,0 1,0 8 4 - - W 1036,1 25 0,0
22.10.2018 06:00:00 3,2 2,0 8 4 - - WNW 1035,6 40 0,0
22.10.2018 05:00:00 4,5 1,8 9 5 - - WNW 1035,1 35 0,0
22.10.2018 04:00:00 5,5 2,3 11 6 - - WNW 1034,7 35 0,0
22.10.2018 03:00:00 5,8 2,3 13 7 - - WNW 1034,2 35 0,0
22.10.2018 02:00:00 6,9 2,8 18 10 - - NW 1033,4 35 0,0
22.10.2018 01:00:00 4,9 0,6 4 2 - - NW 1033,0 28 0,0
22.10.2018 00:00:00 7,1 3,1 11 6 - - WNW 1032,5 35 0,0
21.10.2018 23:00:00 8,0 4,0 13 7 - - NW 1031,9 40 0,0
21.10.2018 22:00:00 8,9 4,5 21 11 - - NW 1031,3 30 0,0
21.10.2018 21:00:00 10,2 5,3 18 10 - - NW 1030,4 35 0,0
21.10.2018 20:00:00 10,4 6,1 13 7 - - NNW 1029,6 35 0,0
21.10.2018 19:00:00 11,5 6,9 15 8 - - WNW 1028,5 29 0,0
21.10.2018 18:00:00 13,0 7,2 31 17 50 27 NW 1027,3 45 0,0
21.10.2018 17:00:00 13,9 8,3 22 12 - - NW 1026,1 45 0,0
21.10.2018 16:00:00 15,0 9,9 22 12 46 25 NW 1025,3 50 0,0
21.10.2018 15:00:00 15,5 12,7 11 6 - - SW 1025,0 35 0,0
21.10.2018 14:00:00 15,3 12,1 24 13 - - WSW 1024,4 50 0,0
21.10.2018 13:00:00 15,0 12,1 24 13 - - WSW 1024,3 30 0,0
21.10.2018 12:00:00 14,7 11,6 9 5 - - W 1024,7 40 0,0
21.10.2018 11:00:00 15,3 12,1 16 9 - - WSW 1024,6 2,1 0,0
21.10.2018 10:00:00 14,0 12,0 13 7 - - SW 1024,8 12 0,0
21.10.2018 09:00:00 12,3 12,3 5 3 - - SE 1025,1 11 0,0
21.10.2018 08:00:00 11,4 11,3 5 3 - - ESE 1024,8 6 0,0
21.10.2018 07:00:00 10,7 10,5 9 5 - - ESE 1024,7 6 0,0
21.10.2018 06:00:00 11,1 11,0 9 5 - - ESE 1024,9 8 0,0
21.10.2018 05:00:00 10,9 10,9 5 3 - - ESE 1025,4 8 0,0
21.10.2018 04:00:00 9,9 9,9 8 4 - - ESE 1025,9 8 0,0
21.10.2018 03:00:00 8,2 8,1 8 4 - - E 1026,3 8 0,0
21.10.2018 02:00:00 7,5 7,3 9 5 - - SE 1026,7 8 0,0
21.10.2018 01:00:00 7,5 7,3 8 4 - - ESE 1027,1 5 0,0
21.10.2018 00:00:00 8,0 7,8 8 4 - - SE 1027,7 0,4 0,0
20.10.2018 23:00:00 8,3 7,7 5 3 - - ESE 1027,7 6 0,0
20.10.2018 22:00:00 9,0 8,0 5 3 - - ENE 1027,9 10 0,0
20.10.2018 21:00:00 9,4 8,7 4 2 - - SE 1028,1 15 0,0
20.10.2018 20:00:00 9,1 7,3 8 4 - - SSE 1028,2 22 0,0
20.10.2018 19:00:00 13,0 9,6 8 4 - - SW 1028,0 35 0,0
20.10.2018 18:00:00 13,7 8,9 8 4 - - SW 1028,0 45 0,0
20.10.2018 17:00:00 16,1 10,2 15 8 - - WSW 1028,1 30 0,0
20.10.2018 16:00:00 17,5 10,0 9 5 - - WNW 1028,1 30 0,0
20.10.2018 15:00:00 17,3 9,7 21 11 - - SW 1028,1 30 0,0
20.10.2018 14:00:00 17,0 10,5 18 10 - - SW 1028,3 27 0,0
20.10.2018 13:00:00 16,3 10,0 18 10 - - SW 1028,5 35 0,0
20.10.2018 12:00:00 15,2 11,6 13 7 - - SSE 1028,9 17 0,0
20.10.2018 11:00:00 12,5 10,5 13 7 - - S 1029,3 12 -
20.10.2018 10:00:00 11,7 10,1 13 7 - - SSE 1029,5 10 0,0
20.10.2018 09:00:00 10,4 9,6 8 4 - - SE 1029,4 6 0,0
20.10.2018 08:00:00 8,9 8,7 9 5 - - SSE 1028,6 3,6 0,0
20.10.2018 07:00:00 8,7 8,5 9 5 - - SSE 1028,6 2,9 0,0
20.10.2018 06:00:00 9,1 8,5 11 6 - - SE 1028,7 5 0,0
20.10.2018 05:00:00 11,2 10,6 9 5 - - S 1028,4 10 0,0
20.10.2018 04:00:00 10,5 10,0 9 5 - - SE 1028,4 13 0,0
20.10.2018 03:00:00 9,5 9,1 5 3 - - SSE 1028,3 10 0,0
20.10.2018 02:00:00 9,1 8,8 8 4 - - SE 1028,0 9 0,0
20.10.2018 01:00:00 8,2 7,9 9 5 - - SE 1027,8 8 0,0
20.10.2018 00:00:00 7,2 6,4 8 4 - - SSE 1027,6 8 0,0
19.10.2018 23:00:00 7,4 6,5 4 2 - - SSW 1027,5 17 0,0
19.10.2018 22:00:00 9,1 6,8 4 2 - - SE 1027,3 23 0,0
19.10.2018 21:00:00 11,8 8,8 9 5 - - W 1027,1 35 0,0
19.10.2018 20:00:00 11,2 7,3 8 4 - - NW 1026,0 40 0,0
19.10.2018 19:00:00 11,7 8,2 8 4 - - W 1025,8 45 0,0
19.10.2018 18:00:00 13,0 7,9 11 6 - - W 1025,0 40 0,0
19.10.2018 17:00:00 14,6 7,4 9 5 - - W 1024,5 45 0,0
19.10.2018 16:00:00 15,1 7,5 16 9 - - WNW 1024,4 35 0,0
19.10.2018 15:00:00 14,7 7,6 21 11 - - W 1024,2 35 0,0
19.10.2018 14:00:00 13,9 8,1 15 8 - - WSW 1024,6 29 0,0
19.10.2018 13:00:00 12,7 7,6 9 5 - - SW 1025,0 10 0,0
19.10.2018 12:00:00 9,9 7,2 15 8 - - S 1025,2 15 0,0
19.10.2018 11:00:00 8,3 7,0 18 10 - - SSE 1024,9 14 0,0
19.10.2018 10:00:00 5,3 5,2 9 5 - - SSE 1025,9 10 0,0
19.10.2018 09:00:00 3,8 3,8 13 7 - - SE 1025,2 6 0,0
19.10.2018 08:00:00 3,4 3,4 11 6 - - SE 1025,4 3,8 0,0
19.10.2018 07:00:00 2,9 2,9 13 7 - - SE 1025,5 1,4 0,0
19.10.2018 06:00:00 3,9 3,9 9 5 - - S 1025,7 0,2 0,0
19.10.2018 05:00:00 4,1 4,1 9 5 - - S 1025,9 0,1 0,0
19.10.2018 04:00:00 3,5 3,5 8 4 - - S 1026,5 - 0,2
19.10.2018 03:00:00 4,0 4,0 8 4 - - SSW 1026,9 0,1 0,0
19.10.2018 02:00:00 2,1 2,1 5 3 - - SE 1027,2 0,2 0,0
19.10.2018 01:00:00 1,5 1,3 2 1 - - NE 1027,9 28 0,0
19.10.2018 00:00:00 1,4 1,1 2 1 - - WSW 1028,1 0,2 0,0
18.10.2018 23:00:00 3,4 3,1 5 3 - - SW 1028,0 0,4 0,0
18.10.2018 22:00:00 4,5 4,3 9 5 - - SE 1028,0 10 0,0
18.10.2018 21:00:00 4,2 3,8 13 7 - - ESE 1027,9 13 0,0
18.10.2018 20:00:00 3,9 2,7 9 5 - - E 1028,1 28 0,0
18.10.2018 19:00:00 6,2 3,8 2 1 - - NNW 1028,2 45 0,0
18.10.2018 18:00:00 9,9 4,6 4 2 - - NNW 1028,1 40 0,0
18.10.2018 17:00:00 11,8 3,9 2 1 - - NW 1028,0 40 0,0
18.10.2018 16:00:00 13,2 5,0 4 2 - - N 1028,4 19 0,0
18.10.2018 15:00:00 12,6 4,5 8 4 - - NW 1028,6 24 0,0
18.10.2018 14:00:00 12,7 5,0 5 3 - - NNW 1028,8 45 0,0
18.10.2018 13:00:00 11,3 5,6 9 5 - - NNW 1029,2 23 0,0
18.10.2018 12:00:00 9,8 5,3 13 7 - - NNW 1029,7 27 0,0
18.10.2018 11:00:00 8,3 4,9 13 7 - - NW 1029,9 40 0,0
18.10.2018 10:00:00 6,5 4,2 11 6 - - NNW 1030,0 10 0,0
18.10.2018 09:00:00 4,4 3,0 9 5 - - NW 1029,7 30 0,0
18.10.2018 08:00:00 3,4 2,6 11 6 - - NW 1029,3 35 0,0
18.10.2018 07:00:00 2,7 1,8 8 4 - - NNW 1028,8 35 0,0
18.10.2018 06:00:00 3,7 3,0 8 4 - - NW 1028,1 40 0,0
18.10.2018 05:00:00 3,3 2,7 11 6 - - NNW 1028,1 30 0,0
18.10.2018 04:00:00 4,6 4,1 11 6 - - NNW 1027,8 35 0,0
18.10.2018 03:00:00 4,9 4,4 8 4 - - NNW 1027,7 45 0,0
18.10.2018 02:00:00 4,9 4,7 4 2 - - N 1027,5 28 0,0
18.10.2018 01:00:00 4,6 4,0 5 3 - - N 1027,5 35 0,0
18.10.2018 00:00:00 5,5 4,5 4 2 - - NNE 1026,9 35 0,0
17.10.2018 23:00:00 8,2 6,8 9 5 - - NW 1026,2 45 0,0

tt = Température de l'air
td = dewpoint
ff = Vitesse du vent
fx = gusts
dd = Direction du vent
ppp = reduced air pressure
vv = visibility
rr = Quantités de précipitations

stations d'obs. à proximité